Weather observations for the past three days for
Lancaster, Fairfield County Airport
Metric (Imperial)
Date Time (edt) Wind (kph) Vis. (km) Weather Sky Cond. Temperature (ºC) Relative Humidity Wind Chill (°C) Heat Index (°C) Pressure Precipitation (cm)
Air Dwpt 6 hour altimeter (cm) sea level (mb) 1 hr 3 hr 6 hr
Max. Min.
24 23:53 Calm 16.09 Fair CLR 18.9 17.2 90% 75.87 1010.8
24 22:53 S 6 16.09 Fair CLR 22.2 17.2 73% 75.9 1011.2
24 21:53 S 6 16.09 Fair CLR 22.8 17.2 71% 75.87 1010.8
24 20:53 SW 7 16.09 Fair CLR 24.4 16.7 62% 25 75.87 1010.6
24 19:53 SW 11 16.09 Fair CLR 26.1 16.7 30 26.1 56% 27 75.87 1010.7
24 18:53 SW 15 16.09 A Few Clouds FEW110 27.2 16.7 53% 28 75.84 1010.5
24 17:53 SW 15 16.09 A Few Clouds FEW046 27.8 17.2 53% 28 75.82 1010.0
24 16:53 SW 15 16.09 Mostly Cloudy FEW060 BKN075 27.8 17.2 53% 28 75.84 1010.5
24 15:53 SW 19 16.09 A Few Clouds FEW049 FEW090 29.4 16.7 46% 30 75.9 1011.0
24 14:53 S 17 16.09 A Few Clouds FEW045 FEW055 28.9 16.1 46% 29 75.95 1011.7
24 13:53 S 15 16.09 Partly Cloudy FEW044 SCT060 28.3 16.7 28.9 20 49% 29 75.97 1012.1
24 12:53 S 11 16.09 A Few Clouds FEW034 FEW043 27.8 17.8 55% 29 76.02 1012.7
24 11:53 Vrbl 6 16.09 Mostly Cloudy SCT033 BKN065 26.7 17.2 56% 27 76.02 1012.6
24 10:53 S 11 16.09 Mostly Cloudy FEW023 BKN050 24.4 18.3 69% 25 76.07 1013.5
24 09:53 Vrbl 11 16.09 Fair CLR 23.9 18.3 71% 25 76.07 1013.3
24 08:53 Vrbl 9 16.09 Fair CLR 21.7 18.3 81% 76.05 1013.3
24 07:53 S 7 16.09 Fair CLR 20 17.8 20.6 17.2 87% 76.02 1012.8
24 06:53 S 6 16.09 A Few Clouds FEW095 18.3 17.2 93% 76 1012.6
24 05:53 Calm 16.09 A Few Clouds FEW080 17.8 16.7 93% 76 1012.6
24 04:53 Calm 16.09 Mostly Cloudy BKN075 18.9 17.8 93% 76 1012.5
24 03:53 NW 6 16.09 Mostly Cloudy BKN075 19.4 17.8 91% 76 1012.3
24 02:53 W 7 16.09 Fair CLR 19.4 17.8 91% 76 1012.4
24 01:53 Calm 16.09 A Few Clouds FEW047 20.6 17.8 23.9 20 84% 76.02 1012.8
24 00:53 S 7 16.09 Fair CLR 20.6 17.8 84% 76.02 1012.9
23 23:53 S 7 16.09 Fair CLR 21.1 17.8 82% 76.02 1012.9
23 22:53 Calm 16.09 Fair CLR 22.2 17.2 73% 76.05 1013.1
23 21:53 Calm 16.09 Fair CLR 21.7 17.8 79% 76.02 1012.7
23 20:53 S 6 16.09 Fair CLR 22.8 17.2 71% 76 1012.3
23 19:53 S 13 16.09 Fair CLR 23.9 16.7 27.2 23.9 64% 25 75.97 1012.2
23 18:53 SW 11 16.09 Fair CLR 25.6 16.7 58% 26 75.97 1012.3
23 17:53 S 13 16.09 A Few Clouds FEW040 25.6 16.1 56% 26 75.97 1012.4
23 16:53 Vrbl 11 16.09 Mostly Cloudy FEW038 BKN060 26.1 16.7 56% 27 76 1012.6
23 15:53 SE 26 16.09 Partly Cloudy FEW038 SCT048 SCT060 25.6 16.7 58% 26 76.05 1013.3
23 14:53 S 13 16.09 Mostly Cloudy BKN039 BKN050 26.7 16.1 52% 27 76.1 1013.9
23 13:53 SE 17 16.09 Mostly Cloudy BKN036 25 16.7 26.1 20 60% 26 76.12 1014.0
23 12:53 SE 11 16.09 Mostly Cloudy BKN038 BKN048 24.4 15.6 58% 26 76.15 1014.6
23 11:53 S 9 16.09 A Few Clouds FEW041 25 14.4 52% 26 76.2 1015.1
23 10:53 S 6 16.09 A Few Clouds FEW034 23.9 15 58% 25 76.2 1015.2
23 09:53 E 7 16.09 Fair CLR 23.3 15.6 62% 76.23 1015.4
23 08:53 E 6 16.09 Fair CLR 22.2 16.1 68% 76.17 1015.0
23 07:53 Calm 16.09 Fair CLR 20.6 17.8 21.1 17.2 84% 76.17 1014.9
23 06:53 W 6 16.09 Mostly Cloudy BKN050 18.3 17.2 93% 76.17 1014.8
23 05:53 Calm 16.09 Partly Cloudy SCT050 18.9 16.7 87% 76.12 1014.2
23 04:53 W 9 16.09 Overcast OVC055 20 17.2 84% 76.12 1014.0
23 03:53 SW 9 16.09 Mostly Cloudy SCT023 BKN050 20.6 17.8 84% 76.07 1013.5
23 02:53 SW 9 16.09 Fair CLR 20.6 17.8 84% 76.05 1013.2
23 01:53 W 13 16.09 Fair CLR 21.1 18.3 25.6 21.1 84% 76.05 1013.2
23 00:53 SW 13 16.09 A Few Clouds FEW034 21.7 18.3 81% 76.05 1012.9
22 23:53 SW 20 G 35 16.09 A Few Clouds FEW070 22.8 18.3 76% 76 1012.4
22 22:53 SW 17 16.09 Fair CLR 23.3 19.4 79% 75.95 1011.8
22 21:53 SW 13 16.09 Fair CLR 23.3 20 82% 75.97 1012.1
22 20:53 SW 17 G 33 16.09 Fair CLR 23.9 19.4 76% 24 75.9 1010.9
22 19:53 S 17 16.09 Light Rain CLR 25.6 20 27.8 25.6 71% 27 75.82 1009.9
22 18:53 SW 22 G 35 16.09 Light Rain BKN032 26.7 19.4 64% 28 75.87 1010.7
22 17:53 SW 22 G 39 16.09 Light Rain CLR 26.7 19.4 64% 28 75.87 1010.7
22 16:53 SW 28 G 39 16.09 Light Rain FEW036 27.2 18.9 61% 28 75.87 1010.5
22 15:53 S 26 G 39 16.09 Light Rain FEW035 SCT047 27.8 19.4 60% 29 75.92 1011.3
22 14:53 SW 28 G 39 16.09 Light Rain BKN031 BKN047 OVC055 26.1 18.9 65% 27 75.95 1011.7
22 13:53 SW 22 G 43 16.09 Light Rain SCT080 26.7 19.4 26.7 21.1 64% 28 75.95 1011.8 0.1
22 12:53 S 24 G 35 16.09 Fair CLR 25 19.4 71% 26 75.97 1012.1
22 11:53 SW 24 G 39 16.09 Light Rain SCT110 22.8 18.9 79% 76.02 1012.8
22 10:53 S 28 G 46 16.09 Light Rain FEW025 BKN110 21.1 18.9 87% 75.9 1011.1 0.1 0.1
22 09:53 SW 15 16.09 Light Rain FEW085 BKN110 22.8 18.3 76% 76.07 1013.3
22 08:53 S 19 16.09 A Few Clouds FEW095 23.3 17.2 69% 76 1012.3
22 07:53 S 17 16.09 Fair CLR 23.3 16.7 23.9 21.1 67% 75.92 1011.2
22 06:53 S 15 16.09 Fair CLR 22.2 16.7 71% 75.92 1011.5
22 05:53 S 9 16.09 Fair CLR 21.7 16.1 71% 75.92 1011.3
22 04:53 S 11 16.09 Fair CLR 22.2 16.7 71% 75.92 1011.2
22 03:53 S 7 16.09 Fair CLR 21.7 17.2 76% 75.95 1011.4
22 02:53 S 6 16.09 Fair CLR 21.7 17.2 76% 75.95 1011.6
22 01:53 S 9 16.09 Fair CLR 22.8 17.8 28.3 22.8 74% 75.95 1011.7
22 00:53 SW 11 16.09 Fair CLR 24.4 17.8 67% 25 75.95 1011.6
Date Time (edt) Wind (kph) Vis. (km) Weather Sky Cond. Air Dwpt Max. Min. Relative Humidity Wind Chill (°C) Heat Index (°C) altimeter (cm) sea level (mb) 1 hr 3 hr 6 hr
6 hour
Temperature (ºC) Pressure Precipitation (cm)